• în România
  • Lista ţărilor
  • Pe 7 zile
  • Temperatura apei
  • Hartă satelitară
  • Meteo pe hartă
  • Widget-uri
  • user-avatar
    Intrare

    Meteo pe oră la Pula

    Astăzi, 22 Iunie, Vineri

    Timp Temperatura Precipitaţii Vânt Presiune Umiditate
    00:00 +23°C° 0,2 mm 5 m/s 752 mmHg 79%
    01:00 +23°C° 0,2 mm 5 m/s 751 mmHg 79%
    02:00 +22°C° 0,3 mm 5 m/s 751 mmHg 82%
    03:00 +22°C° 0,3 mm 4 m/s 751 mmHg 86%
    04:00 +22°C° 0,3 mm 4 m/s 751 mmHg 89%
    05:00 +22°C° 0,6 mm 4 m/s 751 mmHg 88%
    06:00 +22°C° 0,6 mm 4 m/s 751 mmHg 87%
    07:00 +22°C° 0,6 mm 4 m/s 751 mmHg 87%
    08:00 +21°C° 0,8 mm 4 m/s 751 mmHg 86%
    09:00 +20°C° 0,8 mm 4 m/s 752 mmHg 86%
    10:00 +19°C° 0,8 mm 4 m/s 752 mmHg 86%
    11:00 +17°C° 1,8 mm 8 m/s 753 mmHg 86%
    12:00 +14°C° 1,8 mm 11 m/s 753 mmHg 85%
    13:00 +11°C° 1,8 mm 15 m/s 754 mmHg 85%
    14:00 +13°C° 1 mm 15 m/s 754 mmHg 81%
    15:00 +13°C° 1 mm 14 m/s 754 mmHg 76%
    16:00 +14°C° 1 mm 14 m/s 754 mmHg 71%
    17:00 +14°C° 0,1 mm 13 m/s 754 mmHg 66%
    18:00 +16°C° 0,1 mm 11 m/s 755 mmHg 61%
    19:00 +17°C° 0,1 mm 10 m/s 755 mmHg 56%
    20:00 +17°C° 0 mm 9 m/s 755 mmHg 56%
    21:00 +17°C° 0 mm 9 m/s 756 mmHg 55%
    22:00 +16°C° 0 mm 9 m/s 757 mmHg 55%
    23:00 +17°C° 0 mm 9 m/s 757 mmHg 54%

    Mâine, 23 Iunie, Sâmbătă

    Timp Temperatura Precipitaţii Vânt Presiune Umiditate
    00:00 +17°C° 0 mm 8 m/s 757 mmHg 53%
    01:00 +17°C° 0 mm 8 m/s 757 mmHg 52%
    02:00 +16°C° 0 mm 8 m/s 757 mmHg 53%
    03:00 +16°C° 0 mm 8 m/s 757 mmHg 54%
    04:00 +16°C° 0 mm 8 m/s 757 mmHg 54%
    05:00 +16°C° 0 mm 8 m/s 758 mmHg 54%
    06:00 +17°C° 0 mm 8 m/s 758 mmHg 54%
    07:00 +18°C° 0 mm 8 m/s 758 mmHg 54%
    08:00 +20°C° 0 mm 8 m/s 758 mmHg 51%
    09:00 +21°C° 0 mm 7 m/s 758 mmHg 47%
    10:00 +22°C° 0 mm 6 m/s 758 mmHg 43%
    11:00 +23°C° 0 mm 6 m/s 757 mmHg 41%
    12:00 +25°C° 0 mm 5 m/s 757 mmHg 38%
    13:00 +26°C° 0 mm 4 m/s 757 mmHg 36%
    14:00 +26°C° 0 mm 3 m/s 756 mmHg 37%
    15:00 +26°C° 0 mm 3 m/s 756 mmHg 38%
    16:00 +26°C° 0 mm 3 m/s 756 mmHg 39%
    17:00 +25°C° 0 mm 3 m/s 755 mmHg 45%
    18:00 +22°C° 0 mm 3 m/s 755 mmHg 52%
    19:00 +21°C° 0 mm 3 m/s 755 mmHg 58%
    20:00 +20°C° 0 mm 3 m/s 756 mmHg 59%
    21:00 +20°C° 0 mm 4 m/s 756 mmHg 60%
    22:00 +19°C° 0 mm 4 m/s 756 mmHg 61%
    23:00 +19°C° 0 mm 4 m/s 756 mmHg 61%

    Poimâine, 24 Iunie, Duminică

    Timp Temperatura Precipitaţii Vânt Presiune Umiditate
    00:00 +19°C° 0 mm 5 m/s 756 mmHg 61%
    01:00 +19°C° 0 mm 5 m/s 756 mmHg 61%
    02:00 +19°C° 0 mm 5 m/s 756 mmHg 61%
    03:00 +19°C° 0 mm 5 m/s 755 mmHg 60%
    04:00 +17°C° 0 mm 5 m/s 755 mmHg 59%
    05:00 +19°C° 0 mm 5 m/s 755 mmHg 59%
    06:00 +20°C° 0 mm 5 m/s 755 mmHg 58%
    07:00 +20°C° 0 mm 4 m/s 755 mmHg 57%
    08:00 +20°C° 0 mm 4 m/s 755 mmHg 63%
    09:00 +19°C° 0 mm 5 m/s 755 mmHg 68%
    10:00 +19°C° 0 mm 5 m/s 755 mmHg 74%
    11:00 +17°C° 0,1 mm 5 m/s 755 mmHg 77%
    12:00 +17°C° 0,1 mm 6 m/s 755 mmHg 79%
    13:00 +17°C° 0,1 mm 7 m/s 756 mmHg 81%
    14:00 +17°C° 0,1 mm 7 m/s 755 mmHg 78%
    15:00 +18°C° 0,1 mm 7 m/s 755 mmHg 75%
    16:00 +18°C° 0,1 mm 7 m/s 755 mmHg 71%
    17:00 +19°C° 0 mm 6 m/s 754 mmHg 69%
    18:00 +20°C° 0 mm 6 m/s 754 mmHg 66%
    19:00 +20°C° 0 mm 5 m/s 754 mmHg 64%
    20:00 +20°C° 0 mm 5 m/s 754 mmHg 64%
    21:00 +20°C° 0 mm 5 m/s 754 mmHg 64%
    22:00 +19°C° 0 mm 5 m/s 755 mmHg 65%
    23:00 +19°C° 0,1 mm 5 m/s 754 mmHg 66%

    25 Iunie, Luni

    Timp Temperatura Precipitaţii Vânt Presiune Umiditate
    00:00 +19°C° 0,1 mm 5 m/s 754 mmHg 68%
    01:00 +19°C° 0,1 mm 5 m/s 754 mmHg 69%
    02:00 +19°C° 0,1 mm 5 m/s 754 mmHg 67%
    03:00 +19°C° 0,1 mm 6 m/s 754 mmHg 66%
    04:00 +19°C° 0,1 mm 6 m/s 753 mmHg 64%
    05:00 +18°C° 0,3 mm 7 m/s 754 mmHg 64%
    06:00 +18°C° 0,3 mm 7 m/s 754 mmHg 64%
    07:00 +20°C° 0,3 mm 7 m/s 754 mmHg 63%
    08:00 +21°C° 0,1 mm 8 m/s 754 mmHg 60%
    09:00 +21°C° 0,1 mm 8 m/s 754 mmHg 57%
    10:00 +22°C° 0,1 mm 8 m/s 754 mmHg 54%
    11:00 +23°C° 0 mm 8 m/s 754 mmHg 51%
    12:00 +23°C° 0 mm 7 m/s 754 mmHg 49%
    13:00 +24°C° 0 mm 7 m/s 754 mmHg 47%
    14:00 +24°C° 0 mm 6 m/s 754 mmHg 47%
    15:00 +24°C° 0 mm 6 m/s 754 mmHg 47%
    16:00 +25°C° 0 mm 5 m/s 753 mmHg 47%
    17:00 +23°C° 0 mm 5 m/s 754 mmHg 53%
    18:00 +22°C° 0 mm 6 m/s 754 mmHg 58%
    19:00 +21°C° 0 mm 6 m/s 754 mmHg 63%
    20:00 +21°C° 0 mm 7 m/s 754 mmHg 63%
    21:00 +20°C° 0 mm 7 m/s 754 mmHg 64%
    22:00 +20°C° 0 mm 8 m/s 754 mmHg 64%
    23:00 +20°C° 0,2 mm 8 m/s 754 mmHg 64%

    26 Iunie, Marţi

    Timp Temperatura Precipitaţii Vânt Presiune Umiditate
    00:00 +20°C° 0,2 mm 8 m/s 754 mmHg 63%
    01:00 +18°C° 0,2 mm 8 m/s 754 mmHg 62%
    02:00 +18°C° 0,1 mm 8 m/s 754 mmHg 63%
    03:00 +18°C° 0,1 mm 8 m/s 754 mmHg 64%
    04:00 +18°C° 0,1 mm 8 m/s 754 mmHg 64%
    05:00 +20°C° 0,1 mm 8 m/s 754 mmHg 63%
    06:00 +19°C° 0,1 mm 9 m/s 754 mmHg 62%
    07:00 +21°C° 0,1 mm 9 m/s 754 mmHg 61%
    08:00 +22°C° 0,1 mm 9 m/s 754 mmHg 57%
    09:00 +23°C° 0,1 mm 9 m/s 754 mmHg 53%
    10:00 +24°C° 0,1 mm 9 m/s 754 mmHg 48%
    11:00 +26°C° 0 mm 8 m/s 754 mmHg 46%
    12:00 +27°C° 0 mm 7 m/s 754 mmHg 43%
    13:00 +27°C° 0 mm 7 m/s 753 mmHg 41%
    14:00 +28°C° 0 mm 6 m/s 753 mmHg 41%
    15:00 +28°C° 0 mm 6 m/s 753 mmHg 42%
    16:00 +28°C° 0 mm 5 m/s 753 mmHg 43%
    17:00 +27°C° 0 mm 6 m/s 753 mmHg 47%
    18:00 +24°C° 0 mm 7 m/s 753 mmHg 52%
    19:00 +23°C° 0 mm 7 m/s 753 mmHg 57%
    20:00 +23°C° 0 mm 7 m/s 754 mmHg 58%
    21:00 +22°C° 0 mm 7 m/s 754 mmHg 58%
    22:00 +21°C° 0 mm 8 m/s 754 mmHg 59%
    23:00 +21°C° 0 mm 7 m/s 754 mmHg 59%

    27 Iunie, Miercuri

    Timp Temperatura Precipitaţii Vânt Presiune Umiditate
    00:00 +21°C° 0 mm 7 m/s 754 mmHg 60%
    01:00 +21°C° 0 mm 7 m/s 754 mmHg 61%
    02:00 +21°C° 0 mm 7 m/s 754 mmHg 61%
    03:00 +21°C° 0 mm 8 m/s 754 mmHg 62%
    04:00 +21°C° 0 mm 8 m/s 754 mmHg 62%
    05:00 +21°C° 0 mm 8 m/s 754 mmHg 60%
    06:00 +22°C° 0 mm 8 m/s 754 mmHg 58%
    07:00 +23°C° 0 mm 8 m/s 754 mmHg 56%
    08:00 +24°C° 0 mm 8 m/s 754 mmHg 52%
    09:00 +26°C° 0 mm 7 m/s 754 mmHg 47%
    10:00 +28°C° 0 mm 7 m/s 754 mmHg 42%
    11:00 +28°C° 0 mm 6 m/s 754 mmHg 40%
    12:00 +29°C° 0 mm 6 m/s 754 mmHg 37%
    13:00 +30°C° 0 mm 5 m/s 753 mmHg 35%
    14:00 +29°C° 0 mm 5 m/s 753 mmHg 41%
    15:00 +28°C° 0 mm 5 m/s 753 mmHg 48%
    16:00 +28°C° 0 mm 5 m/s 752 mmHg 54%
    17:00 +27°C° 0 mm 5 m/s 753 mmHg 57%
    18:00 +26°C° 0 mm 5 m/s 753 mmHg 60%
    19:00 +25°C° 0 mm 5 m/s 753 mmHg 63%
    20:00 +25°C° 0 mm 5 m/s 753 mmHg 63%
    21:00 +25°C° 0 mm 4 m/s 753 mmHg 64%
    22:00 +23°C° 0 mm 4 m/s 754 mmHg 65%
    23:00 +23°C° 0 mm 4 m/s 753 mmHg 64%
    Arată mai mult